| time (UTC) | temp F | wind direction | speed MPH | gust MPH | rain 1hr in | rain 24hr in | rain mn in | humidity % | barometer mb |
| 20260903154819 | 56 | 316 | 1.0 | 1.0 | 0.00 | 0.00 | 0.00 | 87 | 489.5 |
| 20260903153321 | 56 | 316 | 0.0 | 2.0 | 0.00 | 0.00 | 0.00 | 87 | 505.6 |
| 20260903151825 | 56 | 316 | 0.0 | 2.0 | 0.00 | 0.00 | 0.00 | 87 | 233.9 |
| 20260903150327 | 56 | 316 | 1.0 | 1.0 | 0.00 | 0.00 | 0.00 | 86 | 317.4 |
| 20260903144827 | 57 | 316 | 1.0 | 1.0 | 0.00 | 0.00 | 0.00 | 86 | |
| 20260903143311 | 57 | 316 | 1.0 | 2.0 | 0.00 | 0.00 | 0.00 | 86 | 694.5 |
| 20260903141829 | 57 | 316 | 2.0 | 2.0 | 0.00 | 0.00 | 0.00 | 86 | 763.9 |
| 20260903140310 | 57 | 316 | 1.0 | 2.0 | 0.00 | 0.00 | 0.00 | 86 | 953.6 |
| 20260903134810 | 57 | 316 | 1.0 | 2.0 | 0.00 | 0.00 | 0.00 | 85 | 88.8 |
| 20260903133326 | 58 | 316 | 1.0 | 2.0 | 0.00 | 0.00 | 0.00 | 84 | 355.6 |
| 20260903131828 | 58 | 316 | 1.0 | 2.0 | 0.00 | 0.00 | 0.00 | 83 | 713.9 |
| 20260903130324 | 58 | 316 | 1.0 | 2.0 | 0.00 | 0.00 | 0.00 | 84 | 715.8 |
| 20260903124822 | 58 | 316 | 1.0 | 2.0 | 0.00 | 0.00 | 0.00 | 84 | 852.0 |
| 20260903123324 | 59 | 316 | 1.0 | 2.0 | 0.00 | 0.00 | 0.00 | 83 | 714.5 |
| 20260903121821 | 59 | 316 | 0.0 | 1.0 | 0.00 | 0.00 | 0.00 | 83 | 719.6 |
| 20260903120343 | 59 | 316 | 1.0 | 2.0 | 0.00 | 0.00 | 0.00 | 83 | 850.9 |
| 20260903114840 | 59 | 316 | 1.0 | 3.0 | 0.00 | 0.00 | 0.00 | 83 | 815.4 |
| 20260903113316 | 60 | 316 | 2.0 | 2.0 | 0.00 | 0.00 | 0.00 | 82 | |
| 20260903111816 | 61 | 316 | 1.0 | 2.0 | 0.00 | 0.00 | 0.00 | 80 | 950.9 |
| 20260903110335 | 61 | 316 | 0.0 | 2.0 | 0.00 | 0.00 | 0.00 | 78 | 658.4 |
| 20260903104811 | 62 | 316 | 0.0 | 2.0 | 0.00 | 0.00 | 0.00 | 77 | 929.9 |
| 20260903103312 | 61 | 316 | 0.0 | 2.0 | 0.00 | 0.00 | 0.00 | 80 | |
| 20260903101829 | 61 | 319 | 2.0 | 3.0 | 0.00 | 0.00 | 0.00 | 79 | 715.5 |
| 20260903100331 | 62 | 325 | 1.0 | 2.0 | 0.00 | 0.00 | 0.00 | 78 | 771.9 |
| 20260903094826 | 63 | 315 | 2.0 | 2.0 | 0.00 | 0.00 | 0.00 | 77 | 418.9 |
| 20260903093325 | 64 | 315 | 1.0 | 2.0 | 0.00 | 0.00 | 0.00 | 75 | 659.6 |
| 20260903091825 | 65 | 331 | 1.0 | 2.0 | 0.00 | 0.00 | 0.00 | 72 | 1013.5 |
| 20260903090322 | 66 | 317 | 1.0 | 3.0 | 0.00 | 0.00 | 0.00 | 72 | 715.1 |